This is the latest recevied weather packets stored in our database for station/object LU3HGB-WX. If no packets are shown the sender has not sent any weather packets the latest 10 day(s).
| Time | Temp. | Humidity | Pressure | Rain* | Wind** | Luminosity | Snow |
|---|---|---|---|---|---|---|---|
| 1777593760 | 9.44° C | 86% | 1011 hPa | 0 mm | - | 0 W/m² | - |
| 1777593460 | 9.44° C | 86% | 1011 hPa | 0 mm | - | 0 W/m² | - |
| 1777593159 | 9.44° C | 87% | 1011 hPa | 0 mm | - | 0 W/m² | - |
| 1777592860 | 9.44° C | 85% | 1011 hPa | 0 mm | - | 0 W/m² | - |
| 1777592559 | 9.44° C | 86% | 1011 hPa | 0 mm | - | 0 W/m² | - |
| 1777592260 | 10° C | 85% | 1011 hPa | 0 mm | - | 0 W/m² | - |
| 1777591963 | 10° C | 84% | 1010 hPa | 0 mm | - | 0 W/m² | - |
| 1777591660 | 10.56° C | 83% | 1010 hPa | 0 mm | - | 0 W/m² | - |
| 1777591360 | 10.56° C | 82% | 1010 hPa | 0 mm | - | 0 W/m² | - |
| 1777591059 | 10.56° C | 82% | 1010 hPa | 0 mm | - | 0 W/m² | - |
| 1777590760 | 10.56° C | 83% | 1010 hPa | 0 mm | - | 0 W/m² | - |
| 1777590460 | 11.11° C | 80% | 1010 hPa | 0 mm | - | 0 W/m² | - |
| 1777590160 | 11.11° C | 79% | 1010 hPa | 0 mm | - | 0 W/m² | - |
| 1777589860 | 11.11° C | 77% | 1010 hPa | 0 mm | - | 0 W/m² | - |
| 1777589560 | 11.11° C | 81% | 1010 hPa | 0 mm | - | 0 W/m² | - |
| 1777589261 | 11.11° C | 81% | 1010 hPa | 0 mm | - | 0 W/m² | - |
| 1777588959 | 11.67° C | 79% | 1010 hPa | 0 mm | - | 0 W/m² | - |
| 1777588660 | 12.22° C | 77% | 1010 hPa | 0 mm | - | 0 W/m² | - |
| 1777588360 | 12.22° C | 77% | 1010 hPa | 0 mm | - | 0 W/m² | - |
| 1777588059 | 12.78° C | 77% | 1010 hPa | 0 mm | - | 0 W/m² | - |
| 1777587759 | 12.78° C | 75% | 1010 hPa | 0 mm | - | 0 W/m² | - |
| 1777587460 | 13.33° C | 74% | 1010 hPa | 0 mm | - | 0 W/m² | - |
| 1777587160 | 14.44° C | 72% | 1010 hPa | 0 mm | - | 0 W/m² | - |
| 1777586860 | 15° C | 66% | 1010 hPa | 0 mm | - | 0 W/m² | - |
| 1777586559 | 15.56° C | 63% | 1010 hPa | 0 mm | - | 0 W/m² | - |
* Rain latest hour (hover to see other rain measurements)
** Current wind speed in m/s (hover to see current wind gust speed)